Banff, Alberta

6:23 PM MDT on July 27, 2017 (GMT -0600)
Banff

Weather History for CWZG - December, 2012

Change the Weather History Date:

Wednesday, December 12, 2012

  Actual Average Record
Temperature  
Mean Temperature 20 °F -  
Max Temperature 24 °F - - ()
Min Temperature 15 °F - - ()
Degree Days  
Heating Degree Days 46    
Moisture  
Dew Point 15 °F    
Average Humidity 79    
Maximum Humidity 89    
Minimum Humidity 60    
Precipitation  
Precipitation 0.00 in - - ()
Sea Level Pressure  
Sea Level Pressure 29.76 in    
Wind  
Wind Speed 4 mph ()    
Max Wind Speed 7 mph    
Max Gust Speed -    
T = Trace of Precipitation, MM = Missing Value Source: Averaged Metar Reports

Daily Weather History Graph

Daily Weather History Graph

Search for Another Location

Airport or City:

Trip Planner

Search our weather history database for the weather conditions in past years. The results will help you decide how hot, cold, wet, or windy it might be!

Date:

Astronomy

Dec. 12, 2012 Rise Set
Actual Time 8:37 AM MST 4:34 PM MST
Civil Twilight 7:58 AM MST 5:14 PM MST
Nautical Twilight 7:15 AM MST 5:56 PM MST
Astronomical Twilight 6:34 AM MST 6:37 PM MST
Moon 7:44 AM MST (12/12) 4:18 PM MST (12/12)
Length of Visible Light 9h 16m
Length of Day
7h 56m
Waning Crescent, 0% of the Moon is Illuminated
Dec 12
Waning Crescent
Dec 13
New
Dec 19
First Quarter
Dec 28
Full
Jan 4
Last Quarter

Hourly Weather History & Observations

Time (MST) Temp. Windchill Dew Point Humidity Pressure Visibility Wind Dir Wind Speed Gust Speed Precip Events Conditions
12:00 AM 22.3 °F 16.1 °F 18.0 °F 83% 29.60 in - West 4.6 mph - N/A   Unknown
1:00 AM 22.6 °F 15.3 °F 18.3 °F 83% 29.61 in - SW 5.8 mph - N/A   Unknown
2:00 AM 23.2 °F 17.2 °F 18.1 °F 81% 29.62 in - WSW 4.6 mph - N/A   Unknown
3:00 AM 22.3 °F 16.1 °F 18.1 °F 84% 29.63 in - SW 4.6 mph - N/A   Unknown
4:00 AM 21.2 °F 16.4 °F 17.8 °F 87% 29.65 in - SW 3.5 mph - N/A   Unknown
6:00 AM 19.6 °F 14.5 °F 16.5 °F 88% 29.68 in - SW 3.5 mph - N/A   Unknown
7:00 AM 18.9 °F 13.7 °F 16.0 °F 89% 29.71 in - WSW 3.5 mph - N/A   Unknown
8:00 AM 18.1 °F - 14.9 °F 87% 29.73 in - WSW 2.3 mph - N/A   Unknown
9:00 AM 17.1 °F - 13.6 °F 86% 29.75 in - SW 2.3 mph - N/A   Unknown
10:00 AM 17.4 °F - 13.6 °F 85% 29.77 in - SW 2.3 mph - N/A   Unknown
11:00 AM 19.6 °F 14.5 °F 13.1 °F 76% 29.79 in - West 3.5 mph - N/A   Unknown
12:00 PM 20.7 °F 14.2 °F 13.1 °F 73% 29.78 in - SW 4.6 mph - N/A   Unknown
1:00 PM 23.2 °F 17.2 °F 12.0 °F 62% 29.77 in - SW 4.6 mph - N/A   Unknown
2:00 PM 24.8 °F 16.9 °F 12.6 °F 60% 29.76 in - SW 6.9 mph - N/A   Unknown
3:00 PM 24.1 °F 19.7 °F 14.4 °F 66% 29.78 in - WSW 3.5 mph - N/A   Unknown
4:00 PM 24.3 °F 17.3 °F 16.0 °F 71% 29.79 in - WSW 5.8 mph - N/A   Unknown
5:00 PM 23.9 °F - 15.8 °F 71% 29.81 in - West 2.3 mph - N/A   Unknown
6:00 PM 17.6 °F - 11.5 °F 77% 29.85 in - North 2.3 mph - N/A   Unknown
7:00 PM 15.3 °F - 11.3 °F 84% 29.87 in - ENE 2.3 mph - N/A   Unknown
8:00 PM 15.6 °F 10.0 °F 10.4 °F 80% 29.87 in - ENE 3.5 mph - N/A   Unknown
9:00 PM 17.1 °F 11.7 °F 13.8 °F 87% 29.86 in - WSW 3.5 mph - N/A   Unknown
10:00 PM 18.1 °F 10.0 °F 13.1 °F 81% 29.87 in - WSW 5.8 mph - N/A   Unknown
11:00 PM 17.8 °F 9.6 °F 12.7 °F 81% 29.88 in - WSW 5.8 mph - N/A   Unknown